KD8FRE Weather Reports


Display with metric or nautical units.
time (UTC)temp
F
wind
direction
speed
MPH
gust
MPH
rain 1hr
in
rain 24hr
in
rain mn
in
humidity
%
barometer
mb
20260507161328 49 290 9.0 16.0 0.00 0.00 0.00 45 1013.2
20260507160825 50 261 10.0 11.0 0.00 0.00 0.00 44 1013.5
20260507160321 49 272 6.0 7.0 0.00 0.00 0.00 47 1013.3
20260507155817 49 263 7.0 11.0 0.00 0.00 0.00 47 1013.4
20260507155313 49 268 11.0 11.0 0.00 0.00 0.00 46 1013.4
20260507154810 49 284 11.0 13.0 0.00 0.00 0.00 47 1013.4
20260507154307 49 264 9.0 15.0 0.00 0.00 0.00 47 1013.3
20260507153804 49 264 8.0 11.0 0.00 0.00 0.00 47 1013.1
20260507153300 49 259 9.0 14.0 0.00 0.00 0.00 47 1013.2
20260507152757 49 276 6.0 13.0 0.00 0.00 0.00 46 1013.2
20260507152253 49 299 9.0 15.0 0.00 0.00 0.00 46 1013.2
20260507151749 49 273 7.0 11.0 0.00 0.00 0.00 49 1013.3
20260507151245 50 284 10.0 14.0 0.00 0.00 0.00 47 1013.2
20260507150743 50 272 8.0 10.0 0.00 0.00 0.00 48 1013.1
20260507150239 49 261 7.0 14.0 0.00 0.00 0.00 49 1013.2
20260507145736 50 312 4.0 13.0 0.00 0.00 0.00 50 1013.0
20260507145232 49 173 8.0 10.0 0.00 0.00 0.00 49 1013.1
20260507144729 49 268 5.0 13.0 0.00 0.00 0.00 51 1013.2
20260507144227 49 275 8.0 11.0 0.00 0.00 0.00 50 1013.2
20260507143723 50 267 8.0 14.0 0.00 0.00 0.00 48 1013.1
20260507143220 49 265 7.0 8.0 0.00 0.00 0.00 51 1013.2
20260507142716 49 276 9.0 9.0 0.00 0.00 0.00 49 1013.2
20260507142213 49 270 7.0 11.0 0.00 0.00 0.00 49 1013.2
20260507141709 49 277 4.0 6.0 0.00 0.00 0.00 49 1013.0
20260507141206 49 287 8.0 9.0 0.00 0.00 0.00 48 1013.0
20260507140702 49 301 6.0 7.0 0.00 0.00 0.00 48 1013.1
20260507140200 50 275 5.0 8.0 0.00 0.00 0.00 47 1013.2
20260507135657 49 307 2.0 3.0 0.00 0.00 0.00 51 1013.2
20260507135154 49 336 0.0 4.0 0.00 0.00 0.00 49 1013.2
20260507134650 49 88 1.0 4.0 0.00 0.00 0.00 48 1013.0
20260507134147 49 268 2.0 2.0 0.00 0.00 0.00 49 1013.3
20260507133643 48 146 1.0 3.0 0.00 0.00 0.00 50 1013.4
20260507133140 48 251 4.0 4.0 0.00 0.00 0.00 51 1013.3
20260507132637 48 314 1.0 2.0 0.00 0.00 0.00 51 1013.3
20260507132133 48 264 3.0 3.0 0.00 0.00 0.00 51 1013.2
20260507131630 48 264 2.0 3.0 0.00 0.00 0.00 53 1013.4
20260507131128 47 266 1.0 3.0 0.00 0.00 0.00 55 1013.4
20260507130624 47 296 3.0 3.0 0.00 0.00 0.00 53 1013.3
20260507130122 46 286 1.0 3.0 0.00 0.00 0.00 56 1013.4
20260507125621 46 310 2.0 4.0 0.00 0.00 0.00 56 1013.5
20260507125118 46 279 2.0 3.0 0.00 0.00 0.00 58 1013.3
20260507124614 45 269 3.0 3.0 0.00 0.00 0.00 59 1013.3
20260507124112 45 306 2.0 3.0 0.00 0.00 0.00 60 1013.1
20260507123610 45 293 3.0 6.0 0.00 0.00 0.00 59 1013.1
20260507123107 44 288 3.0 3.0 0.00 0.00 0.00 62 1013.2
20260507122602 44 307 2.0 4.0 0.00 0.00 0.00 61 1013.2
20260507122058 44 287 4.0 4.0 0.00 0.00 0.00 62 1013.2
20260507121554 43 295 3.0 4.0 0.00 0.00 0.00 64 1013.3
20260507121050 43 297 2.0 2.0 0.00 0.00 0.00 65 1013.3
20260507120546 43 281 1.0 3.0 0.00 0.00 0.00 67 1013.3
20260507120043 42 314 1.0 1.0 0.00 0.00 0.00 69 1013.4
20260507115540 42 311 1.0 2.0 0.00 0.00 0.00 69 1013.4
20260507115035 42 305 2.0 2.0 0.00 0.00 0.00 70 1013.3
20260507114531 41 329 1.0 1.0 0.00 0.00 0.00 72 1013.3
20260507114029 41 322 0.0 1.0 0.00 0.00 0.00 72 1013.3
20260507113526 41 342 0.0 0.0 0.00 0.00 0.00 73 1013.1
20260507113023 40 342 0.0 1.0 0.00 0.00 0.00 75 1013.1
20260507112521 39 342 0.0 0.0 0.00 0.00 0.00 79 1013.2
20260507112017 39 340 0.0 0.0 0.00 0.00 0.00 80 1013.2
20260507111515 38 327 1.0 1.0 0.00 0.00 0.00 82 1013.0
20260507111010 38 334 0.0 1.0 0.00 0.00 0.00 84 1013.1
20260507110508 37 334 0.0 0.0 0.00 0.00 0.00 86 1012.9
20260507110004 37 338 1.0 1.0 0.00 0.00 0.00 87 1013.1
20260507105501 37 340 0.0 0.0 0.00 0.00 0.00 87 1013.1
20260507104957 37 6 0.0 0.0 0.00 0.00 0.00 87 1012.6
20260507104454 37 6 0.0 0.0 0.00 0.00 0.00 87 1012.8
20260507103950 37 6 0.0 0.0 0.00 0.00 0.00 86 1012.7
20260507103447 37 6 0.0 0.0 0.00 0.00 0.00 86 1012.7
20260507102943 37 6 0.0 0.0 0.00 0.00 0.00 86 1012.6
20260507102440 38 6 0.0 0.0 0.00 0.00 0.00 84 1012.7
20260507101937 38 6 0.0 0.0 0.00 0.00 0.00 83 1012.5
20260507101432 39 6 0.0 0.0 0.00 0.00 0.00 84 1012.6
20260507100928 39 6 0.0 0.0 0.00 0.00 0.00 83 1012.4
20260507100426 38 6 0.0 0.0 0.00 0.00 0.00 81 1012.4
20260507095924 38 6 0.0 0.0 0.00 0.00 0.00 81 1012.5
20260507095421 38 6 0.0 0.0 0.00 0.00 0.00 78 1012.6
20260507094918 38 6 0.0 0.0 0.00 0.00 0.00 77 1012.7
20260507094414 39 5 0.0 0.0 0.00 0.00 0.00 77 1012.7
20260507093911 39 301 0.0 0.0 0.00 0.00 0.00 79 1012.5
20260507093409 39 301 0.0 0.0 0.00 0.00 0.00 79 1012.5
20260507092908 40 301 0.0 0.0 0.00 0.00 0.00 78 1012.6
20260507092403 40 301 0.0 0.0 0.00 0.00 0.00 77 1012.8
20260507091900 40 301 0.0 0.0 0.00 0.00 0.00 74 1012.9
20260507091356 41 301 0.0 0.0 0.00 0.00 0.00 74 1012.8
20260507090852 41 301 0.0 0.0 0.00 0.00 0.00 72 1012.7
20260507090348 41 301 0.0 0.0 0.00 0.00 0.00 70 1013.0
20260507085846 42 301 0.0 0.0 0.00 0.00 0.00 67 1012.8
20260507085342 42 301 0.0 0.0 0.00 0.00 0.00 66 1013.1
20260507084840 42 300 1.0 1.0 0.00 0.00 0.00 65 1012.9
20260507084336 43 301 0.0 1.0 0.00 0.00 0.00 65 1012.9
20260507083834 43 296 1.0 1.0 0.00 0.00 0.00 65 1013.0
20260507083330 43 296 1.0 2.0 0.00 0.00 0.00 64 1013.0
20260507082826 43 294 1.0 2.0 0.00 0.00 0.00 64 1013.1
20260507082321 43 293 1.0 2.0 0.00 0.00 0.00 64 1013.0
20260507081819 43 291 1.0 2.0 0.00 0.00 0.00 64 1012.9
20260507081315 43 289 2.0 2.0 0.00 0.00 0.00 66 1013.0
20260507080812 43 300 1.0 1.0 0.00 0.00 0.00 64 1013.0
20260507080308 43 297 1.0 2.0 0.00 0.00 0.00 64 1013.0
20260507075803 43 301 0.0 0.0 0.00 0.00 0.00 64 1012.8
20260507075259 43 300 1.0 1.0 0.00 0.00 0.00 64 1012.7
20260507074756 43 300 1.0 2.0 0.00 0.00 0.00 64 1012.8
20260507074255 43 300 1.0 2.0 0.00 0.00 0.00 65 1013.0
20260507073751 43 301 1.0 2.0 0.00 0.00 0.00 65 1012.9
20260507073247 43 294 1.0 2.0 0.00 0.00 0.00 65 1012.9
20260507072745 43 296 1.0 2.0 0.00 0.00 0.00 65 1012.9
20260507072242 44 292 1.0 2.0 0.00 0.00 0.00 63 1012.9
20260507071740 44 288 2.0 3.0 0.00 0.00 0.00 62 1012.8
20260507071236 44 297 2.0 2.0 0.00 0.00 0.00 61 1012.8
20260507070733 44 295 1.0 2.0 0.00 0.00 0.00 62 1012.9
20260507070230 44 285 2.0 2.0 0.00 0.00 0.00 60 1012.8
20260507065726 44 291 1.0 2.0 0.00 0.00 0.00 60 1013.0
20260507065223 44 285 2.0 2.0 0.00 0.00 0.00 61 1013.1
20260507064721 44 291 1.0 2.0 0.00 0.00 0.00 62 1013.1
20260507064220 44 291 1.0 2.0 0.00 0.00 0.00 61 1013.2
20260507063716 44 288 1.0 2.0 0.00 0.00 0.00 62 1013.1
20260507063213 44 285 2.0 2.0 0.00 0.00 0.00 62 1013.2
20260507062710 44 280 2.0 2.0 0.00 0.00 0.00 61 1013.0
20260507062208 44 291 2.0 2.0 0.00 0.00 0.00 62 1012.9
20260507061705 45 297 1.0 1.0 0.00 0.00 0.00 63 1013.2
20260507061203 45 293 1.0 2.0 0.00 0.00 0.00 63 1013.1
20260507060701 45 303 1.0 2.0 0.00 0.00 0.00 62 1013.1
20260507060157 46 304 1.0 2.0 0.00 0.00 0.00 57 1012.9
20260507055653 46 303 1.0 1.0 0.00 0.00 0.00 55 1013.0
20260507055149 46 299 1.0 2.0 0.00 0.00 0.00 55 1013.1
20260507054645 46 293 2.0 3.0 0.00 0.00 0.00 56 1013.3
20260507054142 46 298 1.0 2.0 0.00 0.00 0.00 58 1013.2
20260507053640 46 302 1.0 1.0 0.00 0.00 0.00 58 1013.2
20260507053138 46 302 1.0 1.0 0.00 0.00 0.00 58 1013.2
20260507052636 46 302 1.0 1.0 0.00 0.00 0.00 56 1013.3
20260507052132 46 302 1.0 1.0 0.00 0.00 0.00 55 1013.3
20260507051630 46 302 1.0 1.0 0.00 0.00 0.00 55 1013.2
20260507051126 46 302 1.0 1.0 0.00 0.00 0.00 55 1013.3
20260507050623 46 302 1.0 2.0 0.00 0.00 0.00 56 1013.3
20260507050120 46 301 1.0 2.0 0.00 0.00 0.00 56 1013.5
20260507045617 47 303 1.0 2.0 0.00 0.00 0.00 55 1013.3
20260507045114 47 299 2.0 2.0 0.00 0.00 0.00 54 1013.3
20260507044610 47 303 1.0 2.0 0.00 0.00 0.00 54 1013.3
20260507044108 47 304 1.0 2.0 0.00 0.00 0.00 54 1013.3
20260507043603 47 303 1.0 1.0 0.00 0.00 0.00 57 1013.2
20260507043101 47 304 1.0 2.0 0.00 0.00 0.00 55 1013.4
20260507042556 47 304 1.0 1.0 0.00 0.00 0.00 54 1013.2
20260507042052 47 305 1.0 1.0 0.00 0.00 0.00 54 1013.4
20260507041549 47 305 1.0 1.0 0.00 0.00 0.00 55 1013.4
20260507041046 47 305 0.0 1.0 0.00 0.00 0.00 55 1013.2
20260507040543 47 305 0.0 0.0 0.00 0.00 0.00 57 1013.3
20260507040039 47 305 0.0 0.0 0.00 0.00 0.00 57 1013.4
20260507035535 47 305 0.0 0.0 0.00 0.00 0.00 57 1013.4
20260507035031 47 305 0.0 0.0 0.00 0.00 0.00 56 1013.4
20260507034528 47 305 0.0 0.0 0.00 0.00 0.00 54 1013.5
20260507034026 48 305 0.0 1.0 0.00 0.00 0.00 52 1013.4
20260507033524 48 305 0.0 1.0 0.00 0.00 0.00 54 1013.4
20260507033021 48 305 0.0 0.0 0.00 0.00 0.00 54 1013.6
20260507032518 48 305 0.0 0.0 0.00 0.00 0.00 53 1013.4
20260507032014 48 304 0.0 0.0 0.00 0.00 0.00 50 1013.5
20260507031510 48 305 0.0 0.0 0.00 0.00 0.00 50 1013.5
20260507031008 48 306 0.0 0.0 0.00 0.00 0.00 50 1013.5
20260507030504 48 306 0.0 1.0 0.00 0.00 0.00 49 1013.5
20260507030002 48 306 0.0 0.0 0.00 0.00 0.00 50 1013.6
20260507025459 48 306 1.0 1.0 0.00 0.00 0.00 48 1013.6
20260507024956 48 306 1.0 2.0 0.00 0.00 0.00 50 1013.7
20260507024454 48 306 0.0 0.0 0.00 0.00 0.00 47 1013.6
20260507023949 49 306 0.0 0.0 0.00 0.00 0.00 48 1013.6
20260507023446 49 295 1.0 2.0 0.00 0.00 0.00 48 1013.6
20260507022944 49 306 0.0 1.0 0.00 0.00 0.00 47 1013.5
20260507022441 49 305 1.0 2.0 0.00 0.00 0.00 46 1013.6
20260507021936 49 275 3.0 3.0 0.00 0.00 0.00 44 1013.4
20260507021431 49 295 1.0 2.0 0.00 0.00 0.00 44 1013.5
20260507020930 49 292 1.0 3.0 0.00 0.00 0.00 44 1013.4
20260507020426 49 292 1.0 2.0 0.00 0.00 0.00 45 1013.4
20260507015923 49 276 2.0 2.0 0.00 0.00 0.00 44 1013.3
20260507015421 50 296 1.0 3.0 0.00 0.00 0.00 44 1013.5
20260507014918 50 286 2.0 3.0 0.00 0.00 0.00 43 1013.3
20260507014414 50 271 2.0 3.0 0.00 0.00 0.00 44 1013.3
20260507013910 50 266 1.0 3.0 0.00 0.00 0.00 43 1013.2
20260507013408 50 287 3.0 4.0 0.00 0.00 0.00 43 1013.3
20260507012905 50 263 3.0 3.0 0.00 0.00 0.00 43 1013.2
20260507012401 50 290 3.0 7.0 0.00 0.00 0.00 43 1013.1
20260507011859 50 279 3.0 4.0 0.00 0.00 0.00 43 1013.1
20260507011355 50 291 2.0 4.0 0.00 0.00 0.00 44 1013.0
20260507010855 50 281 3.0 3.0 0.00 0.00 0.00 43 1013.2
20260507010351 50 268 5.0 7.0 0.00 0.00 0.00 42 1013.3
20260507005848 50 280 5.0 7.0 0.00 0.00 0.00 43 1013.2
20260507005345 50 260 3.0 4.0 0.00 0.00 0.00 44 1013.3
20260507004842 50 292 2.0 3.0 0.00 0.00 0.00 44 1013.1
20260507004339 50 291 2.0 2.0 0.00 0.00 0.00 46 1013.1
20260507003836 50 279 3.0 4.0 0.00 0.00 0.00 45 1013.0
20260507003331 51 297 1.0 2.0 0.00 0.00 0.00 45 1013.0
20260507002826 51 283 2.0 4.0 0.00 0.00 0.00 45 1013.0
20260507002323 51 310 1.0 2.0 0.00 0.00 0.00 46 1013.0
20260507001821 51 320 1.0 1.0 0.00 0.00 0.00 47 1012.9
20260507001317 51 296 1.0 3.0 0.00 0.00 0.00 45 1012.8
20260507000814 51 296 2.0 3.0 0.00 0.00 0.00 44 1013.0
20260507000309 51 301 2.0 2.0 0.00 0.00 0.00 45 1013.1
20260506235806 51 296 1.0 2.0 0.00 0.00 0.00 45 1012.9
20260506235306 51 282 2.0 2.0 0.00 0.00 0.00 44 1012.9
20260506234759 51 307 1.0 2.0 0.00 0.00 0.00 45 1012.8
20260506234256 51 295 2.0 3.0 0.00 0.00 0.00 43 1012.7
20260506233754 51 290 2.0 4.0 0.00 0.00 0.00 43 1012.8
20260506233250 51 300 3.0 4.0 0.00 0.00 0.00 44 1012.8
20260506232747 51 307 2.0 3.0 0.00 0.00 0.00 43 1012.7
20260506232248 51 283 3.0 3.0 0.00 0.00 0.00 44 1012.7
20260506231745 51 280 3.0 6.0 0.00 0.00 0.00 43 1012.8
20260506231244 51 318 2.0 3.0 0.00 0.00 0.00 46 1012.7
20260506230740 51 314 2.0 3.0 0.00 0.00 0.00 44 1012.7
20260506230237 51 317 2.0 4.0 0.00 0.00 0.00 44 1012.8
20260506225733 51 318 2.0 3.0 0.00 0.00 0.00 46 1012.7
20260506225231 51 282 3.0 3.0 0.00 0.00 0.00 44 1012.7
20260506224727 51 278 2.0 3.0 0.00 0.00 0.00 45 1012.7
20260506224224 51 304 4.0 7.0 0.00 0.00 0.00 43 1012.7
20260506223720 52 279 4.0 6.0 0.00 0.00 0.00 44 1012.8
20260506223216 52 308 5.0 7.0 0.00 0.00 0.00 44 1012.8
20260506222713 52 264 6.0 9.0 0.00 0.00 0.00 42 1012.8
20260506222209 52 275 8.0 8.0 0.00 0.00 0.00 43 1012.9
20260506221707 51 268 5.0 7.0 0.00 0.00 0.00 44 1013.0
20260506221205 52 275 9.0 10.0 0.00 0.00 0.00 42 1012.8
20260506220701 52 299 6.0 8.0 0.00 0.00 0.00 43 1012.9
20260506220156 51 308 2.0 4.0 0.00 0.00 0.00 46 1013.0
20260506215653 51 272 6.0 8.0 0.00 0.00 0.00 43 1013.0
20260506215148 51 335 1.0 4.0 0.00 0.00 0.00 45 1012.8
20260506214646 51 337 1.0 4.0 0.00 0.00 0.00 44 1012.7
20260506214143 51 285 2.0 8.0 0.00 0.00 0.00 44 1012.7
20260506213641 51 277 3.0 3.0 0.00 0.00 0.00 45 1012.8
20260506213138 51 282 6.0 9.0 0.00 0.00 0.00 43 1012.9
20260506212636 51 300 5.0 7.0 0.00 0.00 0.00 43 1012.7
20260506212130 51 304 4.0 6.0 0.00 0.00 0.00 44 1012.6
20260506211626 51 286 3.0 4.0 0.00 0.00 0.00 44 1013.0
20260506211123 51 309 4.0 4.0 0.00 0.00 0.00 45 1012.8
20260506210620 51 298 3.0 4.0 0.00 0.00 0.00 45 1012.8
20260506210116 51 319 1.0 3.0 0.00 0.00 0.00 46 1012.7
20260506205613 51 312 2.0 4.0 0.00 0.00 0.00 44 1012.8
20260506205108 51 299 2.0 4.0 0.00 0.00 0.00 43 1013.0
20260506204607 51 278 4.0 4.0 0.00 0.00 0.00 45 1012.8
20260506204103 50 293 2.0 4.0 0.00 0.00 0.00 44 1012.8
20260506203602 51 306 2.0 4.0 0.00 0.00 0.00 45 1012.9
20260506203058 51 285 4.0 6.0 0.00 0.00 0.00 44 1012.9
20260506202555 51 288 4.0 6.0 0.00 0.00 0.00 44 1013.1
20260506202052 51 305 3.0 3.0 0.00 0.00 0.00 44 1012.9
20260506201549 51 305 5.0 6.0 0.00 0.00 0.00 45 1012.5
20260506201046 50 295 3.0 6.0 0.00 0.00 0.00 45 1012.7
20260506200542 50 260 2.0 6.0 0.00 0.00 0.00 45 1012.9
20260506200039 50 301 6.0 11.0 0.00 0.00 0.00 44 1013.2
20260506195536 50 287 4.0 4.0 0.00 0.00 0.00 45 1013.0
20260506195032 50 283 6.0 8.0 0.00 0.00 0.00 44 1012.9
20260506194530 51 268 5.0 7.0 0.00 0.00 0.00 45 1012.9
20260506194026 51 291 4.0 6.0 0.00 0.00 0.00 46 1013.0
20260506193523 51 351 8.0 9.0 0.00 0.00 0.00 45 1012.8
20260506193020 51 319 3.0 4.0 0.00 0.00 0.00 46 1012.9
20260506192517 51 27 1.0 3.0 0.00 0.00 0.00 45 1013.2
20260506192013 51 67 2.0 7.0 0.00 0.00 0.00 46 1013.0
20260506191510 51 354 3.0 4.0 0.00 0.00 0.00 46 1013.5
20260506191006 50 359 3.0 4.0 0.00 0.00 0.00 49 1013.3
20260506190503 50 313 5.0 7.0 0.00 0.00 0.00 45 1013.4
20260506190000 51 304 6.0 9.0 0.00 0.00 0.00 44 1013.1
20260506185458 50 327 4.0 4.0 0.00 0.00 0.00 49 1013.1
20260506184954 50 14 4.0 7.0 0.00 0.00 0.00 46 1013.2
20260506184451 50 1 4.0 6.0 0.00 0.00 0.00 46 1013.0
20260506183948 49 354 1.0 3.0 0.00 0.00 0.00 47 1013.0
20260506183444 49 295 4.0 4.0 0.00 0.00 0.00 48 1013.1
20260506182941 49 8 3.0 6.0 0.00 0.00 0.00 50 1013.0
20260506182438 49 283 6.0 9.0 0.00 0.00 0.00 49 1013.0
20260506181935 49 327 3.0 6.0 0.00 0.00 0.00 48 1013.2
20260506181433 50 334 2.0 4.0 0.00 0.00 0.00 47 1013.1
20260506180930 49 319 3.0 3.0 0.00 0.00 0.00 50 1012.9
20260506180426 49 341 5.0 7.0 0.00 0.00 0.00 48 1013.3
20260506175923 49 295 5.0 6.0 0.00 0.00 0.00 48 1013.2
20260506175420 49 355 1.0 4.0 0.00 0.00 0.00 48 1013.2
20260506174917 50 274 6.0 9.0 0.00 0.00 0.00 46 1013.3
20260506174414 50 357 3.0 6.0 0.00 0.00 0.00 48 1013.3
20260506173911 49 38 5.0 8.0 0.00 0.00 0.00 46 1013.5
20260506173408 49 353 2.0 6.0 0.00 0.00 0.00 48 1013.5
20260506172905 50 288 6.0 10.0 0.00 0.00 0.00 48 1013.7
20260506172402 50 10 0.0 2.0 0.00 0.00 0.00 50 1013.8
20260506171859 50 324 4.0 6.0 0.00 0.00 0.00 48 1013.7
20260506171356 49 356 3.0 4.0 0.00 0.00 0.00 50 1013.3
20260506170854 48 321 1.0 4.0 0.00 0.00 0.00 47 1013.3
20260506170350 48 296 5.0 8.0 0.00 0.00 0.00 49 1013.5
20260506165849 48 290 4.0 6.0 0.00 0.00 0.00 51 1013.4
20260506165347 48 312 3.0 10.0 0.00 0.00 0.00 50 1013.4
20260506164843 48 335 4.0 6.0 0.00 0.00 0.00 53 1013.5
20260506164339 48 326 4.0 11.0 0.00 0.00 0.00 53 1013.4
20260506163837 48 334 6.0 8.0 0.00 0.00 0.00 53 1013.4
20260506163332 47 331 4.0 8.0 0.00 0.00 0.00 55 1013.3
20260506162827 48 346 4.0 9.0 0.00 0.00 0.00 52 1013.5
20260506162326 48 318 7.0 9.0 0.00 0.00 0.00 52 1013.3
20260506161823 48 310 6.0 9.0 0.00 0.00 0.00 54 1013.5